Location: Kershaw
(34.5481°N, 80.5823°W)
Time: 17:05:22
(UTC+00:00)

Vanguard 1 Rocket - Pass Details

Date: 09 October 2022
Orbit: 650 x 4225 km, 34.3° (Epoch: 08 December)

Event Time Altitude Azimuth Distance (km) Brightness Sun altitude
Rises 23:01:51 0° 242° (WSW) 8,349 13.9 -2.1°
Reaches altitude 10° 23:07:33 10° 241° (WSW) 7,414 13.4 -3.3°
Maximum altitude 23:33:39 77° 161° (SSE) 3,603 10.3 -8.7°
Enters shadow 23:49:10 13° 79° (E) 4,840 10.4 -11.9°
Drops below altitude 10° 23:49:53 10° 79° (E) 4,984 - -12.0°
Sets 23:52:51 0° 78° (ENE) 5,629 - -12.6°
